Tracking 20241 objects as of 27-Jan-2020
HD Live streaming from Space Station
objects crossing your sky now

RADUGA 26

Track RADUGA 26 now!
RADUGA 26 is classified as:


NORAD ID: 21016
Int'l Code: 1990-112A
Perigee: 35,763.7 km
Apogee: 35,827.5 km
Inclination: 14.7 °
Period: 1,436.2 minutes
Semi major axis: 42166 km
RCS: 2.5118 m2 (large)
Launch date: December 20, 1990
Source: Commonwealth of Independent States (former USSR) (CIS)
Launch site: TYURATAM MISSILE AND SPACE COMPLEX (TTMTR)
aabbcc
Your satellite tracking list
Your tracking list is empty




NASA's NSSDC Master Catalog

Two Line Element Set (TLE):
1 21016U 90112A   20027.00251832  .00000067  00000-0  00000+0 0  9997
2 21016  14.7439 356.5038 0007571  25.5221 157.7329  1.00265085106847
Source of the keplerian elements: AFSPC